When you browse on this site, cookies collect data to enhance your experience and personalize the content and advertising you see.
Visit our Privacy Policy to learn more. By continuing to use the site, you agree to this use of cookies and data.
  • In Hungary
  • List of Countries
  • For 7 days
  • Water Temperature
  • Satellite Maps
  • Weather Map
  • News
  • Weather Widgets
  • user-avatar
    Login

    Hourly Weather Atakpame

    Today, 25 April, Thursday

    Time Temperature Precipitation Wind Pressure Humidity
    00:00 +28°C° 0 mm 2 mps 737 mmHg 78%
    01:00 +28°C° 0.2 mm 2 mps 737 mmHg 79%
    02:00 +28°C° 0.2 mm 1 mps 736 mmHg 80%
    03:00 +28°C° 0.2 mm 1 mps 736 mmHg 81%
    04:00 +28°C° 0 mm 1 mps 736 mmHg 82%
    05:00 +27°C° 0 mm 1 mps 736 mmHg 82%
    06:00 +27°C° 0 mm 1 mps 736 mmHg 82%
    07:00 +30°C° 0 mm 1 mps 737 mmHg 73%
    08:00 +32°C° 0 mm 1 mps 737 mmHg 64%
    09:00 +34°C° 0 mm 1 mps 737 mmHg 55%
    10:00 +37°C° 0 mm 2 mps 737 mmHg 49%
    11:00 +38°C° 0 mm 2 mps 737 mmHg 42%
    12:00 +40°C° 0 mm 2 mps 736 mmHg 37%
    13:00 +40°C° 0 mm 2 mps 736 mmHg 36%
    14:00 +40°C° 0 mm 2 mps 735 mmHg 36%
    15:00 +40°C° 0 mm 2 mps 734 mmHg 35%
    16:00 +39°C° 0 mm 2 mps 734 mmHg 39%
    17:00 +38°C° 0 mm 2 mps 734 mmHg 43%
    18:00 +36°C° 0 mm 2 mps 734 mmHg 46%
    19:00 +34°C° 0.6 mm 2 mps 735 mmHg 56%
    20:00 +31°C° 0.6 mm 3 mps 735 mmHg 65%
    21:00 +29°C° 0.6 mm 3 mps 736 mmHg 75%
    22:00 +29°C° 0 mm 3 mps 736 mmHg 76%
    23:00 +29°C° 0 mm 2 mps 736 mmHg 78%

    Tomorrow, 26 April, Friday

    Time Temperature Precipitation Wind Pressure Humidity
    00:00 +28°C° 0 mm 2 mps 736 mmHg 79%
    01:00 +28°C° 0.3 mm 2 mps 735 mmHg 81%
    02:00 +28°C° 0.3 mm 2 mps 735 mmHg 82%
    03:00 +27°C° 0.3 mm 2 mps 735 mmHg 84%
    04:00 +27°C° 0 mm 2 mps 735 mmHg 85%
    05:00 +27°C° 0 mm 2 mps 735 mmHg 85%
    06:00 +27°C° 0 mm 2 mps 735 mmHg 86%
    07:00 +29°C° 0 mm 2 mps 736 mmHg 77%
    08:00 +31°C° 0 mm 2 mps 736 mmHg 67%
    09:00 +34°C° 0 mm 2 mps 736 mmHg 58%
    10:00 +37°C° 0 mm 2 mps 736 mmHg 51%
    11:00 +39°C° 0 mm 2 mps 736 mmHg 44%
    12:00 +41°C° 0 mm 1 mps 736 mmHg 37%
    13:00 +40°C° 0.1 mm 1 mps 735 mmHg 38%
    14:00 +40°C° 0.1 mm 2 mps 734 mmHg 40%
    15:00 +39°C° 0.1 mm 2 mps 733 mmHg 41%
    16:00 +37°C° 0.4 mm 2 mps 733 mmHg 47%
    17:00 +36°C° 0.4 mm 2 mps 733 mmHg 52%
    18:00 +34°C° 0.4 mm 2 mps 733 mmHg 58%
    19:00 +32°C° 0.2 mm 2 mps 733 mmHg 63%
    20:00 +31°C° 0.2 mm 2 mps 734 mmHg 67%
    21:00 +30°C° 0.2 mm 2 mps 735 mmHg 72%
    22:00 +30°C° 0 mm 2 mps 734 mmHg 75%
    23:00 +29°C° 0 mm 2 mps 734 mmHg 78%

    Day after tomorrow, 27 April, Saturday

    Time Temperature Precipitation Wind Pressure Humidity
    00:00 +28°C° 0 mm 3 mps 734 mmHg 81%
    01:00 +28°C° 0 mm 3 mps 734 mmHg 81%
    02:00 +28°C° 0 mm 3 mps 734 mmHg 82%
    03:00 +28°C° 0 mm 3 mps 733 mmHg 83%
    04:00 +28°C° 0 mm 3 mps 734 mmHg 83%
    05:00 +27°C° 0 mm 3 mps 734 mmHg 84%
    06:00 +27°C° 0 mm 2 mps 734 mmHg 84%
    07:00 +29°C° 0 mm 2 mps 734 mmHg 75%
    08:00 +32°C° 0 mm 2 mps 735 mmHg 66%
    09:00 +35°C° 0 mm 2 mps 735 mmHg 57%
    10:00 +37°C° 0 mm 2 mps 735 mmHg 51%
    11:00 +39°C° 0 mm 2 mps 735 mmHg 44%
    12:00 +41°C° 0 mm 2 mps 735 mmHg 38%
    13:00 +41°C° 0 mm 1 mps 734 mmHg 35%
    14:00 +42°C° 0 mm 1 mps 733 mmHg 33%
    15:00 +42°C° 0 mm 1 mps 732 mmHg 30%
    16:00 +40°C° 0.1 mm 2 mps 733 mmHg 37%
    17:00 +38°C° 0.1 mm 2 mps 733 mmHg 43%
    18:00 +36°C° 0.1 mm 3 mps 733 mmHg 49%
    19:00 +34°C° 0.8 mm 3 mps 733 mmHg 58%
    20:00 +31°C° 0.8 mm 3 mps 734 mmHg 67%
    21:00 +30°C° 0.8 mm 3 mps 735 mmHg 76%
    22:00 +29°C° 0 mm 3 mps 735 mmHg 78%
    23:00 +29°C° 0 mm 3 mps 735 mmHg 81%

    28 April, Sunday

    Time Temperature Precipitation Wind Pressure Humidity
    00:00 +28°C° 0 mm 3 mps 735 mmHg 83%
    01:00 +28°C° 0.1 mm 3 mps 735 mmHg 83%
    02:00 +28°C° 0.1 mm 3 mps 734 mmHg 84%
    03:00 +28°C° 0.1 mm 3 mps 734 mmHg 84%
    04:00 +28°C° 0 mm 3 mps 734 mmHg 84%
    05:00 +28°C° 0 mm 3 mps 734 mmHg 84%
    06:00 +28°C° 0 mm 3 mps 734 mmHg 83%
    07:00 +30°C° 0 mm 3 mps 735 mmHg 74%
    08:00 +33°C° 0 mm 3 mps 736 mmHg 65%
    09:00 +35°C° 0 mm 3 mps 736 mmHg 56%
    10:00 +36°C° 0 mm 3 mps 736 mmHg 51%
    11:00 +38°C° 0 mm 3 mps 735 mmHg 46%
    12:00 +39°C° 0 mm 3 mps 735 mmHg 40%
    13:00 +39°C° 0.1 mm 3 mps 734 mmHg 42%
    14:00 +38°C° 0.1 mm 3 mps 734 mmHg 44%
    15:00 +38°C° 0.1 mm 3 mps 733 mmHg 45%
    16:00 +37°C° 0 mm 3 mps 733 mmHg 48%
    17:00 +36°C° 0 mm 2 mps 733 mmHg 51%
    18:00 +35°C° 0 mm 2 mps 734 mmHg 55%
    19:00 +34°C° 0 mm 2 mps 734 mmHg 58%
    20:00 +33°C° 0 mm 3 mps 735 mmHg 62%
    21:00 +31°C° 0 mm 3 mps 735 mmHg 65%
    22:00 +30°C° 0 mm 3 mps 735 mmHg 69%
    23:00 +29°C° 0 mm 3 mps 735 mmHg 73%

    29 April, Monday

    Time Temperature Precipitation Wind Pressure Humidity
    00:00 +29°C° 0 mm 3 mps 735 mmHg 76%
    01:00 +28°C° 0 mm 3 mps 735 mmHg 78%
    02:00 +28°C° 0 mm 3 mps 734 mmHg 80%
    03:00 +28°C° 0 mm 2 mps 734 mmHg 82%
    04:00 +27°C° 0 mm 2 mps 734 mmHg 83%
    05:00 +27°C° 0 mm 2 mps 735 mmHg 84%
    06:00 +27°C° 0 mm 2 mps 735 mmHg 84%
    07:00 +29°C° 0 mm 2 mps 736 mmHg 75%
    08:00 +31°C° 0 mm 2 mps 736 mmHg 66%
    09:00 +34°C° 0 mm 2 mps 737 mmHg 57%
    10:00 +36°C° 0 mm 2 mps 736 mmHg 51%
    11:00 +38°C° 0 mm 2 mps 736 mmHg 45%
    12:00 +40°C° 0 mm 2 mps 735 mmHg 40%
    13:00 +40°C° 0.1 mm 2 mps 735 mmHg 39%
    14:00 +40°C° 0.1 mm 3 mps 734 mmHg 39%
    15:00 +40°C° 0.1 mm 3 mps 733 mmHg 38%
    16:00 +38°C° 0.1 mm 3 mps 733 mmHg 43%
    17:00 +37°C° 0.1 mm 3 mps 734 mmHg 48%
    18:00 +35°C° 0.1 mm 3 mps 734 mmHg 53%
    19:00 +34°C° 0.1 mm 3 mps 734 mmHg 57%
    20:00 +33°C° 0.1 mm 3 mps 735 mmHg 62%
    21:00 +32°C° 0.1 mm 4 mps 735 mmHg 66%
    22:00 +30°C° 0 mm 3 mps 735 mmHg 69%
    23:00 +29°C° 0 mm 3 mps 735 mmHg 72%

    30 April, Tuesday

    Time Temperature Precipitation Wind Pressure Humidity
    00:00 +28°C° 0 mm 2 mps 736 mmHg 75%
    01:00 +28°C° 0 mm 2 mps 735 mmHg 77%
    02:00 +28°C° 0 mm 2 mps 735 mmHg 80%
    03:00 +27°C° 0 mm 2 mps 734 mmHg 82%
    04:00 +27°C° 0 mm 2 mps 735 mmHg 83%
    05:00 +27°C° 0 mm 2 mps 736 mmHg 84%
    06:00 +27°C° 0 mm 1 mps 736 mmHg 86%
    07:00 +29°C° 0 mm 2 mps 736 mmHg 76%
    08:00 +31°C° 0 mm 2 mps 737 mmHg 65%
    09:00 +35°C° 0 mm 3 mps 737 mmHg 55%
    10:00 +36°C° 0 mm 3 mps 736 mmHg 49%
    11:00 +38°C° 0 mm 2 mps 736 mmHg 44%
    12:00 +40°C° 0 mm 2 mps 735 mmHg 38%
    13:00 +40°C° 0 mm 3 mps 734 mmHg 38%
    14:00 +39°C° 0 mm 3 mps 734 mmHg 39%
    15:00 +39°C° 0 mm 3 mps 733 mmHg 39%
    16:00 +38°C° 0 mm 3 mps 733 mmHg 44%
    17:00 +36°C° 0 mm 3 mps 734 mmHg 49%
    18:00 +35°C° 0 mm 4 mps 734 mmHg 54%
    19:00 +34°C° 0 mm 4 mps 734 mmHg 59%
    20:00 +33°C° 0 mm 4 mps 735 mmHg 64%
    21:00 +30°C° 0 mm 4 mps 735 mmHg 69%
    22:00 +30°C° 0.4 mm 3 mps 735 mmHg 74%
    23:00 +29°C° 0.4 mm 2 mps 736 mmHg 78%
    Show more